TimeEDT,TemperatureF,Dew PointF,Humidity,Sea Level PressureIn,VisibilityMPH,Wind Direction,Wind SpeedMPH,Gust SpeedMPH,PrecipitationIn,Events,Conditions,WindDirDegrees,DateUTC
12:51 AM,68.0,64.9,90,30.04,10.0,NW,4.6,-,N/A,,Clear,310,2012-10-05 04:51:00
1:51 AM,68.0,64.0,87,30.05,10.0,NW,4.6,-,N/A,,Clear,320,2012-10-05 05:51:00
2:51 AM,66.9,64.0,90,30.04,10.0,NW,3.5,-,N/A,,Clear,310,2012-10-05 06:51:00
3:51 AM,66.9,63.0,87,30.04,10.0,WNW,3.5,-,N/A,,Clear,300,2012-10-05 07:51:00
4:51 AM,66.0,63.0,90,30.04,10.0,WNW,5.8,-,N/A,,Clear,300,2012-10-05 08:51:00
5:51 AM,66.0,62.1,87,30.05,10.0,WNW,5.8,-,N/A,,Clear,300,2012-10-05 09:51:00
6:51 AM,66.0,59.0,78,30.06,10.0,NW,6.9,-,N/A,,Partly Cloudy,310,2012-10-05 10:51:00
7:51 AM,66.0,57.9,75,30.06,10.0,WNW,3.5,-,N/A,,Partly Cloudy,290,2012-10-05 11:51:00
8:51 AM,68.0,55.9,65,30.06,10.0,WNW,6.9,-,N/A,,Clear,300,2012-10-05 12:51:00
9:51 AM,69.1,57.0,65,30.06,10.0,WNW,3.5,-,N/A,,Clear,300,2012-10-05 13:51:00
10:51 AM,72.0,55.9,57,30.06,10.0,NW,4.6,-,N/A,,Clear,320,2012-10-05 14:51:00
11:51 AM,73.9,57.0,55,30.05,10.0,NW,5.8,-,N/A,,Clear,320,2012-10-05 15:51:00
12:51 PM,75.9,55.9,50,30.02,10.0,Calm,Calm,-,N/A,,Clear,0,2012-10-05 16:51:00
1:51 PM,78.1,54.0,43,29.99,10.0,WNW,5.8,-,N/A,,Partly Cloudy,300,2012-10-05 17:51:00
2:51 PM,79.0,55.0,44,29.97,10.0,Variable,5.8,-,N/A,,Partly Cloudy,0,2012-10-05 18:51:00
3:51 PM,80.1,54.0,40,29.95,10.0,West,4.6,-,N/A,,Partly Cloudy,260,2012-10-05 19:51:00
4:51 PM,80.1,55.0,42,29.95,10.0,WSW,5.8,-,N/A,,Partly Cloudy,250,2012-10-05 20:51:00
5:51 PM,75.9,57.9,54,29.96,10.0,South,9.2,-,N/A,,Partly Cloudy,180,2012-10-05 21:51:00
6:51 PM,75.0,57.9,55,29.96,10.0,South,8.1,-,N/A,,Scattered Clouds,190,2012-10-05 22:51:00
7:51 PM,73.0,59.0,61,29.96,10.0,South,8.1,-,N/A,,Partly Cloudy,180,2012-10-05 23:51:00
8:51 PM,71.1,61.0,70,29.95,10.0,South,8.1,-,N/A,,Partly Cloudy,170,2012-10-06 00:51:00
9:51 PM,71.1,61.0,70,29.95,10.0,South,6.9,-,N/A,,Clear,190,2012-10-06 01:51:00
10:51 PM,72.0,59.0,64,29.94,10.0,South,5.8,-,N/A,,Partly Cloudy,190,2012-10-06 02:51:00
11:51 PM,72.0,59.0,64,29.93,10.0,SSW,8.1,-,N/A,,Partly Cloudy,210,2012-10-06 03:51:00